Regional Weather Roundup
Issued by NWS

Home | Current Version | Previous Version | Text Only | Print | Product List | Glossary On
Versions: 1 2 3 4 5 6 7 8 9 10 11 12 13 14 15 16 17 18 19 20 21 22 23 24 25 26 27 28 29 30 31 32 33 34 35 36 37 38 39 40 41 42 43 44 45 46 47 48 49 50
000
ASUS43 KIND 041609
RWRIN

WEATHER ROUNDUP FOR INDIANA
NATIONAL WEATHER SERVICE INDIANAPOLIS IN
1100 AM EST WED MAR 04 2015

NOTE: "FAIR" INDICATES FEW OR NO CLOUDS BELOW 12,000 FEET WITH NO
SIGNIFICANT WEATHER AND/OR OBSTRUCTIONS TO VISIBILITY.

* - STATION DOES NOT REPORT WEATHER SUCH AS PRECIPITATION OR FOG.

+ - STATION NOT QUALITY CONTROLLED BY THE NATIONAL WEATHER SERVICE.
    USE DATA WITH CAUTION...ESPECIALLY DEWPOINT AND RELATIVE
    HUMIDITY OBSERVATIONS.

INZ001>003-010>013-019-020-041700-
NORTHWEST INDIANA

CITY           SKY/WX    TMP DP  RH WIND       PRES   REMARKS
GARY /AIRPORT/ CLOUDY    25  14  63 W12       30.10R WCI  14
MONTICELLO +   CLOUDY    22  17  83 NW13      30.06S WCI  10
VALPARAISO     NOT AVBL

$$

LMZ046-743>745-041700-
SOUTHERN LAKE MICHIGAN

STATION/POSITION TIME  TEMP WIND        PRES
                       AIR  DIR/SP/G
                 (UTC) (F)  (DEG/KT/KT) (MB)
MICHIGAN CITY    1500   23  300/ 14/ 17   N/A

$$

INZ004-005-014>016-021>024-041700-
NORTH CENTRAL INDIANA

CITY           SKY/WX    TMP DP  RH WIND       PRES   REMARKS
ELKHART        CLOUDY    28  16  59 NW9       30.02R WCI  20
GOSHEN         CLOUDY    28  20  71 NW14      30.00R WCI  17
SOUTH BEND     CLOUDY    27  18  69 NW14      30.03R WCI  16

$$

INZ006>009-017-018-025>027-041700-
NORTHEAST INDIANA

CITY           SKY/WX    TMP DP  RH WIND       PRES   REMARKS
ANGOLA *+      CLOUDY    30  19  64 NW12      29.97R WCI  21
FORT WAYNE     CLOUDY    32  22  66 NW10      30.00R WCI  24

$$

INZ028-029-035-036-043>045-051>053-041700-
WEST CENTRAL INDIANA

CITY           SKY/WX    TMP DP  RH WIND       PRES   REMARKS
CRAWFORDSVL +  CLOUDY    21  13  71 NW14      30.08R WCI   8
GREENCASTLE +  CLOUDY    28  19  69 NW7       30.06R WCI  21
LAFAYETTE      CLOUDY    21  15  78 NW14      30.08R WCI   8
TERRE HAUTE    CLOUDY    23  17  78 NW15      30.11R WCI  10

$$

INZ030>032-037>040-046>048-054>057-064-065-041700-
CENTRAL INDIANA

CITY           SKY/WX    TMP DP  RH WIND       PRES   REMARKS
ANDERSON       CLOUDY    32  27  80 NW12      30.01R HAZE    WCI  23
GREENWOOD *+   CLOUDY    32  25  74 N9        30.02R WCI  24
INDIANAPOLIS   CLOUDY    30  25  81 NW13      30.02R WCI  20
-EAGLE CREEK   CLOUDY    28  24  85 NW10      30.04R WCI  19
KOKOMO *+      CLOUDY    30  25  80 W14       30.03R WCI  20
MT COMFORT *+  CLOUDY    32  21  64 NW12      30.02R WCI  23
SHELBYVILLE    CLOUDY    35  27  72 N8        30.01R WCI  29

$$

INZ033-034-041-042-049-050-058-059-041700-
EAST CENTRAL INDIANA

CITY           SKY/WX    TMP DP  RH WIND       PRES   REMARKS
MUNCIE         CLOUDY    32  26  78 W10       30.01R HAZE    WCI  24

$$

INZ060-061-067>069-081>083-085>088-041700-
SOUTHWEST INDIANA

CITY           SKY/WX    TMP DP  RH WIND       PRES   REMARKS
EVANSVILLE     LGT RAIN  35  31  85 N9        30.08R FOG     WCI  28
HUNTINGBURG *+ CLOUDY    34  28  80 N9G16     30.06R WCI  26

$$

INZ062-063-066-070>080-084-089>092-041700-
SOUTH CENTRAL AND SOUTHEAST INDIANA

CITY           SKY/WX    TMP DP  RH WIND       PRES   REMARKS
BEDFORD +      CLOUDY    34  30  86 N10       30.03R WCI  26
BLOOMINGTON    CLOUDY    33  27  78 N5        30.03R HAZE    WCI  29
NORTH VERNON + CLOUDY    34  34 100 NW7       30.01R FOG     WCI  28
SEYMOUR +      CLOUDY    36  32  87 N7        30.02R

$$



USA.gov is the U.S. government's official web portal to all federal, state and local government web resources and services.